Index of /20260415/WXO-DD/model_gdps/15km/12/078
Name Last modified Size Description
Parent Directory -
20260415T12Z_MSC_GDPS_AbsoluteVorticity_IsbL-0200_LatLon0.15_PT078H.grib2 2026-04-15 16:15 1.5M
20260415T12Z_MSC_GDPS_AbsoluteVorticity_IsbL-0250_LatLon0.15_PT078H.grib2 2026-04-15 16:15 1.3M
20260415T12Z_MSC_GDPS_AbsoluteVorticity_IsbL-0500_LatLon0.15_PT078H.grib2 2026-04-15 16:15 1.5M
20260415T12Z_MSC_GDPS_AbsoluteVorticity_IsbL-0700_LatLon0.15_PT078H.grib2 2026-04-15 16:15 1.3M
20260415T12Z_MSC_GDPS_AbsoluteVorticity_IsbL-0850_LatLon0.15_PT078H.grib2 2026-04-15 16:15 1.6M
20260415T12Z_MSC_GDPS_AirTemp-Max_AGL-2m_LatLon0.15_PT078H.grib2 2026-04-15 16:15 752K
20260415T12Z_MSC_GDPS_AirTemp-Min_AGL-2m_LatLon0.15_PT078H.grib2 2026-04-15 16:15 798K
20260415T12Z_MSC_GDPS_AirTemp_AGL-120m_LatLon0.15_PT078H.grib2 2026-04-15 16:15 913K
20260415T12Z_MSC_GDPS_AirTemp_AGL-2m_LatLon0.15_PT078H.grib2 2026-04-15 16:15 1.0M
20260415T12Z_MSC_GDPS_AirTemp_AGL-40m_LatLon0.15_PT078H.grib2 2026-04-15 16:15 934K
20260415T12Z_MSC_GDPS_AirTemp_AGL-80m_LatLon0.15_PT078H.grib2 2026-04-15 16:15 922K
20260415T12Z_MSC_GDPS_AirTemp_IsbL-0001_LatLon0.15_PT078H.grib2 2026-04-15 16:15 706K
20260415T12Z_MSC_GDPS_AirTemp_IsbL-0005_LatLon0.15_PT078H.grib2 2026-04-15 16:15 685K
20260415T12Z_MSC_GDPS_AirTemp_IsbL-0010_LatLon0.15_PT078H.grib2 2026-04-15 16:15 753K
20260415T12Z_MSC_GDPS_AirTemp_IsbL-0020_LatLon0.15_PT078H.grib2 2026-04-15 16:15 697K
20260415T12Z_MSC_GDPS_AirTemp_IsbL-0030_LatLon0.15_PT078H.grib2 2026-04-15 16:15 749K
20260415T12Z_MSC_GDPS_AirTemp_IsbL-0050_LatLon0.15_PT078H.grib2 2026-04-15 16:15 814K
20260415T12Z_MSC_GDPS_AirTemp_IsbL-0100_LatLon0.15_PT078H.grib2 2026-04-15 16:15 948K
20260415T12Z_MSC_GDPS_AirTemp_IsbL-0150_LatLon0.15_PT078H.grib2 2026-04-15 16:15 969K
20260415T12Z_MSC_GDPS_AirTemp_IsbL-0175_LatLon0.15_PT078H.grib2 2026-04-15 16:15 962K
20260415T12Z_MSC_GDPS_AirTemp_IsbL-0200_LatLon0.15_PT078H.grib2 2026-04-15 16:15 971K
20260415T12Z_MSC_GDPS_AirTemp_IsbL-0225_LatLon0.15_PT078H.grib2 2026-04-15 16:15 1.0M
20260415T12Z_MSC_GDPS_AirTemp_IsbL-0250_LatLon0.15_PT078H.grib2 2026-04-15 16:15 1.0M
20260415T12Z_MSC_GDPS_AirTemp_IsbL-0275_LatLon0.15_PT078H.grib2 2026-04-15 16:15 1.0M
20260415T12Z_MSC_GDPS_AirTemp_IsbL-0300_LatLon0.15_PT078H.grib2 2026-04-15 16:15 1.0M
20260415T12Z_MSC_GDPS_AirTemp_IsbL-0350_LatLon0.15_PT078H.grib2 2026-04-15 16:15 925K
20260415T12Z_MSC_GDPS_AirTemp_IsbL-0400_LatLon0.15_PT078H.grib2 2026-04-15 16:15 936K
20260415T12Z_MSC_GDPS_AirTemp_IsbL-0450_LatLon0.15_PT078H.grib2 2026-04-15 16:15 959K
20260415T12Z_MSC_GDPS_AirTemp_IsbL-0500_LatLon0.15_PT078H.grib2 2026-04-15 16:15 1.0M
20260415T12Z_MSC_GDPS_AirTemp_IsbL-0550_LatLon0.15_PT078H.grib2 2026-04-15 16:15 1.0M
20260415T12Z_MSC_GDPS_AirTemp_IsbL-0600_LatLon0.15_PT078H.grib2 2026-04-15 16:15 895K
20260415T12Z_MSC_GDPS_AirTemp_IsbL-0650_LatLon0.15_PT078H.grib2 2026-04-15 16:15 922K
20260415T12Z_MSC_GDPS_AirTemp_IsbL-0700_LatLon0.15_PT078H.grib2 2026-04-15 16:15 955K
20260415T12Z_MSC_GDPS_AirTemp_IsbL-0750_LatLon0.15_PT078H.grib2 2026-04-15 16:15 1.0M
20260415T12Z_MSC_GDPS_AirTemp_IsbL-0800_LatLon0.15_PT078H.grib2 2026-04-15 16:15 1.1M
20260415T12Z_MSC_GDPS_AirTemp_IsbL-0850_LatLon0.15_PT078H.grib2 2026-04-15 16:15 1.1M
20260415T12Z_MSC_GDPS_AirTemp_IsbL-0875_LatLon0.15_PT078H.grib2 2026-04-15 16:15 1.2M
20260415T12Z_MSC_GDPS_AirTemp_IsbL-0900_LatLon0.15_PT078H.grib2 2026-04-15 16:15 1.1M
20260415T12Z_MSC_GDPS_AirTemp_IsbL-0925_LatLon0.15_PT078H.grib2 2026-04-15 16:15 1.1M
20260415T12Z_MSC_GDPS_AirTemp_IsbL-0950_LatLon0.15_PT078H.grib2 2026-04-15 16:15 1.2M
20260415T12Z_MSC_GDPS_AirTemp_IsbL-0970_LatLon0.15_PT078H.grib2 2026-04-15 16:15 1.2M
20260415T12Z_MSC_GDPS_AirTemp_IsbL-0985_LatLon0.15_PT078H.grib2 2026-04-15 16:15 1.1M
20260415T12Z_MSC_GDPS_AirTemp_IsbL-1000_LatLon0.15_PT078H.grib2 2026-04-15 16:15 1.1M
20260415T12Z_MSC_GDPS_AirTemp_IsbL-1015_LatLon0.15_PT078H.grib2 2026-04-15 16:15 1.1M
20260415T12Z_MSC_GDPS_Albedo_Sfc_LatLon0.15_PT078H.grib2 2026-04-15 16:15 249K
20260415T12Z_MSC_GDPS_CAPE_Sfc_LatLon0.15_PT078H.grib2 2026-04-15 16:15 3.9M
20260415T12Z_MSC_GDPS_CIN_Sfc_LatLon0.15_PT078H.grib2 2026-04-15 16:15 2.8M
20260415T12Z_MSC_GDPS_CloudWater_EAtm_LatLon0.15_PT078H.grib2 2026-04-15 16:15 531K
20260415T12Z_MSC_GDPS_ConvectivePrecip-Accum_Sfc_LatLon0.15_PT078H.grib2 2026-04-15 16:15 3.1M
20260415T12Z_MSC_GDPS_DewPointDepression_AGL-2m_LatLon0.15_PT078H.grib2 2026-04-15 16:15 754K
20260415T12Z_MSC_GDPS_DewPointDepression_IsbL-0010_LatLon0.15_PT078H.grib2 2026-04-15 16:15 5.5K
20260415T12Z_MSC_GDPS_DewPointDepression_IsbL-0020_LatLon0.15_PT078H.grib2 2026-04-15 16:15 57K
20260415T12Z_MSC_GDPS_DewPointDepression_IsbL-0030_LatLon0.15_PT078H.grib2 2026-04-15 16:15 66K
20260415T12Z_MSC_GDPS_DewPointDepression_IsbL-0050_LatLon0.15_PT078H.grib2 2026-04-15 16:15 324K
20260415T12Z_MSC_GDPS_DewPointDepression_IsbL-0100_LatLon0.15_PT078H.grib2 2026-04-15 16:15 383K
20260415T12Z_MSC_GDPS_DewPointDepression_IsbL-0150_LatLon0.15_PT078H.grib2 2026-04-15 16:15 463K
20260415T12Z_MSC_GDPS_DewPointDepression_IsbL-0175_LatLon0.15_PT078H.grib2 2026-04-15 16:15 541K
20260415T12Z_MSC_GDPS_DewPointDepression_IsbL-0200_LatLon0.15_PT078H.grib2 2026-04-15 16:15 615K
20260415T12Z_MSC_GDPS_DewPointDepression_IsbL-0225_LatLon0.15_PT078H.grib2 2026-04-15 16:15 749K
20260415T12Z_MSC_GDPS_DewPointDepression_IsbL-0250_LatLon0.15_PT078H.grib2 2026-04-15 16:15 875K
20260415T12Z_MSC_GDPS_DewPointDepression_IsbL-0275_LatLon0.15_PT078H.grib2 2026-04-15 16:15 891K
20260415T12Z_MSC_GDPS_DewPointDepression_IsbL-0300_LatLon0.15_PT078H.grib2 2026-04-15 16:15 922K
20260415T12Z_MSC_GDPS_DewPointDepression_IsbL-0350_LatLon0.15_PT078H.grib2 2026-04-15 16:15 945K
20260415T12Z_MSC_GDPS_DewPointDepression_IsbL-0400_LatLon0.15_PT078H.grib2 2026-04-15 16:15 1.0M
20260415T12Z_MSC_GDPS_DewPointDepression_IsbL-0450_LatLon0.15_PT078H.grib2 2026-04-15 16:15 1.0M
20260415T12Z_MSC_GDPS_DewPointDepression_IsbL-0500_LatLon0.15_PT078H.grib2 2026-04-15 16:15 1.0M
20260415T12Z_MSC_GDPS_DewPointDepression_IsbL-0550_LatLon0.15_PT078H.grib2 2026-04-15 16:15 1.0M
20260415T12Z_MSC_GDPS_DewPointDepression_IsbL-0600_LatLon0.15_PT078H.grib2 2026-04-15 16:15 1.1M
20260415T12Z_MSC_GDPS_DewPointDepression_IsbL-0650_LatLon0.15_PT078H.grib2 2026-04-15 16:15 1.1M
20260415T12Z_MSC_GDPS_DewPointDepression_IsbL-0700_LatLon0.15_PT078H.grib2 2026-04-15 16:15 1.1M
20260415T12Z_MSC_GDPS_DewPointDepression_IsbL-0750_LatLon0.15_PT078H.grib2 2026-04-15 16:15 1.1M
20260415T12Z_MSC_GDPS_DewPointDepression_IsbL-0800_LatLon0.15_PT078H.grib2 2026-04-15 16:15 1.2M
20260415T12Z_MSC_GDPS_DewPointDepression_IsbL-0850_LatLon0.15_PT078H.grib2 2026-04-15 16:15 1.2M
20260415T12Z_MSC_GDPS_DewPointDepression_IsbL-0875_LatLon0.15_PT078H.grib2 2026-04-15 16:15 1.1M
20260415T12Z_MSC_GDPS_DewPointDepression_IsbL-0900_LatLon0.15_PT078H.grib2 2026-04-15 16:15 1.1M
20260415T12Z_MSC_GDPS_DewPointDepression_IsbL-0925_LatLon0.15_PT078H.grib2 2026-04-15 16:15 1.0M
20260415T12Z_MSC_GDPS_DewPointDepression_IsbL-0950_LatLon0.15_PT078H.grib2 2026-04-15 16:15 1.0M
20260415T12Z_MSC_GDPS_DewPointDepression_IsbL-0970_LatLon0.15_PT078H.grib2 2026-04-15 16:15 1.0M
20260415T12Z_MSC_GDPS_DewPointDepression_IsbL-0985_LatLon0.15_PT078H.grib2 2026-04-15 16:15 1.0M
20260415T12Z_MSC_GDPS_DewPointDepression_IsbL-1000_LatLon0.15_PT078H.grib2 2026-04-15 16:15 970K
20260415T12Z_MSC_GDPS_DewPointDepression_IsbL-1015_LatLon0.15_PT078H.grib2 2026-04-15 16:15 909K
20260415T12Z_MSC_GDPS_DewPoint_AGL-2m_LatLon0.15_PT078H.grib2 2026-04-15 16:15 614K
20260415T12Z_MSC_GDPS_DownwardLongwaveRadiationFlux-Accum_Sfc_LatLon0.15_PT078H.grib2 2026-04-15 16:15 680K
20260415T12Z_MSC_GDPS_DownwardShortwaveRadiationFlux-Accum_NTAtm_LatLon0.15_PT078H.grib2 2026-04-15 16:15 265K
20260415T12Z_MSC_GDPS_DownwardShortwaveRadiationFlux-Accum_Sfc_LatLon0.15_PT078H.grib2 2026-04-15 16:15 907K
20260415T12Z_MSC_GDPS_FreezingRain-Accum12h_Sfc_LatLon0.15_PT078H.grib2 2026-04-15 16:15 78K
20260415T12Z_MSC_GDPS_FreezingRain-Accum1h_Sfc_LatLon0.15_PT078H.grib2 2026-04-15 16:15 26K
20260415T12Z_MSC_GDPS_FreezingRain-Accum24h_Sfc_LatLon0.15_PT078H.grib2 2026-04-15 16:15 125K
20260415T12Z_MSC_GDPS_FreezingRain-Accum3h_Sfc_LatLon0.15_PT078H.grib2 2026-04-15 16:15 33K
20260415T12Z_MSC_GDPS_FreezingRain-Accum6h_Sfc_LatLon0.15_PT078H.grib2 2026-04-15 16:15 57K
20260415T12Z_MSC_GDPS_FreezingRain-Accum_Sfc_LatLon0.15_PT078H.grib2 2026-04-15 16:15 244K
20260415T12Z_MSC_GDPS_GeopotentialHeight_IsbL-0001_LatLon0.15_PT078H.grib2 2026-04-15 16:15 394K
20260415T12Z_MSC_GDPS_GeopotentialHeight_IsbL-0005_LatLon0.15_PT078H.grib2 2026-04-15 16:15 505K
20260415T12Z_MSC_GDPS_GeopotentialHeight_IsbL-0010_LatLon0.15_PT078H.grib2 2026-04-15 16:15 436K
20260415T12Z_MSC_GDPS_GeopotentialHeight_IsbL-0020_LatLon0.15_PT078H.grib2 2026-04-15 16:15 575K
20260415T12Z_MSC_GDPS_GeopotentialHeight_IsbL-0030_LatLon0.15_PT078H.grib2 2026-04-15 16:15 578K
20260415T12Z_MSC_GDPS_GeopotentialHeight_IsbL-0050_LatLon0.15_PT078H.grib2 2026-04-15 16:15 582K
20260415T12Z_MSC_GDPS_GeopotentialHeight_IsbL-0100_LatLon0.15_PT078H.grib2 2026-04-15 16:15 619K
20260415T12Z_MSC_GDPS_GeopotentialHeight_IsbL-0150_LatLon0.15_PT078H.grib2 2026-04-15 16:15 634K
20260415T12Z_MSC_GDPS_GeopotentialHeight_IsbL-0175_LatLon0.15_PT078H.grib2 2026-04-15 16:15 637K
20260415T12Z_MSC_GDPS_GeopotentialHeight_IsbL-0200_LatLon0.15_PT078H.grib2 2026-04-15 16:15 641K
20260415T12Z_MSC_GDPS_GeopotentialHeight_IsbL-0225_LatLon0.15_PT078H.grib2 2026-04-15 16:15 642K
20260415T12Z_MSC_GDPS_GeopotentialHeight_IsbL-0250_LatLon0.15_PT078H.grib2 2026-04-15 16:15 643K
20260415T12Z_MSC_GDPS_GeopotentialHeight_IsbL-0275_LatLon0.15_PT078H.grib2 2026-04-15 16:15 640K
20260415T12Z_MSC_GDPS_GeopotentialHeight_IsbL-0300_LatLon0.15_PT078H.grib2 2026-04-15 16:15 640K
20260415T12Z_MSC_GDPS_GeopotentialHeight_IsbL-0350_LatLon0.15_PT078H.grib2 2026-04-15 16:15 627K
20260415T12Z_MSC_GDPS_GeopotentialHeight_IsbL-0400_LatLon0.15_PT078H.grib2 2026-04-15 16:15 620K
20260415T12Z_MSC_GDPS_GeopotentialHeight_IsbL-0450_LatLon0.15_PT078H.grib2 2026-04-15 16:15 540K
20260415T12Z_MSC_GDPS_GeopotentialHeight_IsbL-0500_LatLon0.15_PT078H.grib2 2026-04-15 16:15 530K
20260415T12Z_MSC_GDPS_GeopotentialHeight_IsbL-0550_LatLon0.15_PT078H.grib2 2026-04-15 16:15 692K
20260415T12Z_MSC_GDPS_GeopotentialHeight_IsbL-0600_LatLon0.15_PT078H.grib2 2026-04-15 16:15 688K
20260415T12Z_MSC_GDPS_GeopotentialHeight_IsbL-0650_LatLon0.15_PT078H.grib2 2026-04-15 16:15 685K
20260415T12Z_MSC_GDPS_GeopotentialHeight_IsbL-0700_LatLon0.15_PT078H.grib2 2026-04-15 16:15 682K
20260415T12Z_MSC_GDPS_GeopotentialHeight_IsbL-0750_LatLon0.15_PT078H.grib2 2026-04-15 16:15 692K
20260415T12Z_MSC_GDPS_GeopotentialHeight_IsbL-0800_LatLon0.15_PT078H.grib2 2026-04-15 16:15 702K
20260415T12Z_MSC_GDPS_GeopotentialHeight_IsbL-0850_LatLon0.15_PT078H.grib2 2026-04-15 16:15 707K
20260415T12Z_MSC_GDPS_GeopotentialHeight_IsbL-0875_LatLon0.15_PT078H.grib2 2026-04-15 16:15 712K
20260415T12Z_MSC_GDPS_GeopotentialHeight_IsbL-0900_LatLon0.15_PT078H.grib2 2026-04-15 16:15 722K
20260415T12Z_MSC_GDPS_GeopotentialHeight_IsbL-0925_LatLon0.15_PT078H.grib2 2026-04-15 16:15 727K
20260415T12Z_MSC_GDPS_GeopotentialHeight_IsbL-0950_LatLon0.15_PT078H.grib2 2026-04-15 16:15 736K
20260415T12Z_MSC_GDPS_GeopotentialHeight_IsbL-0970_LatLon0.15_PT078H.grib2 2026-04-15 16:15 749K
20260415T12Z_MSC_GDPS_GeopotentialHeight_IsbL-0985_LatLon0.15_PT078H.grib2 2026-04-15 16:15 766K
20260415T12Z_MSC_GDPS_GeopotentialHeight_IsbL-1000_LatLon0.15_PT078H.grib2 2026-04-15 16:15 787K
20260415T12Z_MSC_GDPS_GeopotentialHeight_IsbL-1015_LatLon0.15_PT078H.grib2 2026-04-15 16:15 811K
20260415T12Z_MSC_GDPS_Humidex_Sfc_LatLon0.15_PT078H.grib2 2026-04-15 16:15 5.3M
20260415T12Z_MSC_GDPS_IcePellets-Accum12h_Sfc_LatLon0.15_PT078H.grib2 2026-04-15 16:15 31K
20260415T12Z_MSC_GDPS_IcePellets-Accum1h_Sfc_LatLon0.15_PT078H.grib2 2026-04-15 16:15 15K
20260415T12Z_MSC_GDPS_IcePellets-Accum24h_Sfc_LatLon0.15_PT078H.grib2 2026-04-15 16:15 50K
20260415T12Z_MSC_GDPS_IcePellets-Accum3h_Sfc_LatLon0.15_PT078H.grib2 2026-04-15 16:15 12K
20260415T12Z_MSC_GDPS_IcePellets-Accum6h_Sfc_LatLon0.15_PT078H.grib2 2026-04-15 16:15 22K
20260415T12Z_MSC_GDPS_IcePellets-Accum_Sfc_LatLon0.15_PT078H.grib2 2026-04-15 16:15 107K
20260415T12Z_MSC_GDPS_KIndex_Sfc_LatLon0.15_PT078H.grib2 2026-04-15 16:15 6.5M
20260415T12Z_MSC_GDPS_LatentHeatNetFlux_Sfc_LatLon0.15_PT078H.grib2 2026-04-15 16:15 499K
20260415T12Z_MSC_GDPS_LiftedIndex-MU-VT_IsbL-0500_LatLon0.15_PT078H.grib2 2026-04-15 16:15 5.4M
20260415T12Z_MSC_GDPS_NetLongwaveRadiationFlux-Accum_Sfc_LatLon0.15_PT078H.grib2 2026-04-15 16:15 903K
20260415T12Z_MSC_GDPS_NetShortwaveRadiationFlux-Accum_Sfc_LatLon0.15_PT078H.grib2 2026-04-15 16:15 1.1M
20260415T12Z_MSC_GDPS_O3MixingRatio_LatLon0.15_PT078H.grib2 2026-04-15 16:49 1.9M
20260415T12Z_MSC_GDPS_O3_EAtm_LatLon0.15_PT078H.grib2 2026-04-15 16:49 2.1M
20260415T12Z_MSC_GDPS_PlanetaryBoundaryLayerHeight_Sfc_LatLon0.15_PT078H.grib2 2026-04-15 16:15 2.4M
20260415T12Z_MSC_GDPS_Precip-Accum12h_Sfc_LatLon0.15_PT078H.grib2 2026-04-15 16:15 4.0M
20260415T12Z_MSC_GDPS_Precip-Accum1h_Sfc_LatLon0.15_PT078H.grib2 2026-04-15 16:15 3.2M
20260415T12Z_MSC_GDPS_Precip-Accum24h_Sfc_LatLon0.15_PT078H.grib2 2026-04-15 16:15 4.5M
20260415T12Z_MSC_GDPS_Precip-Accum3h_Sfc_LatLon0.15_PT078H.grib2 2026-04-15 16:15 3.5M
20260415T12Z_MSC_GDPS_Precip-Accum6h_Sfc_LatLon0.15_PT078H.grib2 2026-04-15 16:15 3.9M
20260415T12Z_MSC_GDPS_Precip-Accum_Sfc_LatLon0.15_PT078H.grib2 2026-04-15 16:15 4.8M
20260415T12Z_MSC_GDPS_PrecipRate_Sfc_LatLon0.15_PT078H.grib2 2026-04-15 16:15 3.0M
20260415T12Z_MSC_GDPS_PrecipType-Instant_Sfc_LatLon0.15_PT078H.grib2 2026-04-15 16:15 1.5M
20260415T12Z_MSC_GDPS_Pressure_MSL_LatLon0.15_PT078H.grib2 2026-04-15 16:15 724K
20260415T12Z_MSC_GDPS_Pressure_PVU-1.5_LatLon0.15_PT078H.grib2 2026-04-15 16:15 5.8M
20260415T12Z_MSC_GDPS_Pressure_PVU-1_LatLon0.15_PT078H.grib2 2026-04-15 16:15 6.0M
20260415T12Z_MSC_GDPS_Pressure_PVU-2_LatLon0.15_PT078H.grib2 2026-04-15 16:15 5.6M
20260415T12Z_MSC_GDPS_Pressure_Sfc_LatLon0.15_PT078H.grib2 2026-04-15 16:15 1.1M
20260415T12Z_MSC_GDPS_RadiativeTemp_Sfc_LatLon0.15_PT078H.grib2 2026-04-15 16:15 670K
20260415T12Z_MSC_GDPS_Rain-Accum12h_Sfc_LatLon0.15_PT078H.grib2 2026-04-15 16:15 2.6M
20260415T12Z_MSC_GDPS_Rain-Accum1h_Sfc_LatLon0.15_PT078H.grib2 2026-04-15 16:15 1.6M
20260415T12Z_MSC_GDPS_Rain-Accum24h_Sfc_LatLon0.15_PT078H.grib2 2026-04-15 16:15 3.1M
20260415T12Z_MSC_GDPS_Rain-Accum3h_Sfc_LatLon0.15_PT078H.grib2 2026-04-15 16:15 1.8M
20260415T12Z_MSC_GDPS_Rain-Accum6h_Sfc_LatLon0.15_PT078H.grib2 2026-04-15 16:15 2.4M
20260415T12Z_MSC_GDPS_Rain-Accum_Sfc_LatLon0.15_PT078H.grib2 2026-04-15 16:15 3.6M
20260415T12Z_MSC_GDPS_RelativeHumidity_AGL-2m_LatLon0.15_PT078H.grib2 2026-04-15 16:15 1.0M
20260415T12Z_MSC_GDPS_RelativeHumidity_IsbL-0010_LatLon0.15_PT078H.grib2 2026-04-15 16:15 235K
20260415T12Z_MSC_GDPS_RelativeHumidity_IsbL-0020_LatLon0.15_PT078H.grib2 2026-04-15 16:15 376K
20260415T12Z_MSC_GDPS_RelativeHumidity_IsbL-0030_LatLon0.15_PT078H.grib2 2026-04-15 16:15 380K
20260415T12Z_MSC_GDPS_RelativeHumidity_IsbL-0050_LatLon0.15_PT078H.grib2 2026-04-15 16:15 411K
20260415T12Z_MSC_GDPS_RelativeHumidity_IsbL-0100_LatLon0.15_PT078H.grib2 2026-04-15 16:15 488K
20260415T12Z_MSC_GDPS_RelativeHumidity_IsbL-0150_LatLon0.15_PT078H.grib2 2026-04-15 16:15 668K
20260415T12Z_MSC_GDPS_RelativeHumidity_IsbL-0175_LatLon0.15_PT078H.grib2 2026-04-15 16:15 798K
20260415T12Z_MSC_GDPS_RelativeHumidity_IsbL-0200_LatLon0.15_PT078H.grib2 2026-04-15 16:15 696K
20260415T12Z_MSC_GDPS_RelativeHumidity_IsbL-0225_LatLon0.15_PT078H.grib2 2026-04-15 16:15 778K
20260415T12Z_MSC_GDPS_RelativeHumidity_IsbL-0250_LatLon0.15_PT078H.grib2 2026-04-15 16:15 872K
20260415T12Z_MSC_GDPS_RelativeHumidity_IsbL-0275_LatLon0.15_PT078H.grib2 2026-04-15 16:15 899K
20260415T12Z_MSC_GDPS_RelativeHumidity_IsbL-0300_LatLon0.15_PT078H.grib2 2026-04-15 16:15 941K
20260415T12Z_MSC_GDPS_RelativeHumidity_IsbL-0350_LatLon0.15_PT078H.grib2 2026-04-15 16:15 956K
20260415T12Z_MSC_GDPS_RelativeHumidity_IsbL-0400_LatLon0.15_PT078H.grib2 2026-04-15 16:15 1.0M
20260415T12Z_MSC_GDPS_RelativeHumidity_IsbL-0450_LatLon0.15_PT078H.grib2 2026-04-15 16:15 1.0M
20260415T12Z_MSC_GDPS_RelativeHumidity_IsbL-0500_LatLon0.15_PT078H.grib2 2026-04-15 16:15 1.0M
20260415T12Z_MSC_GDPS_RelativeHumidity_IsbL-0550_LatLon0.15_PT078H.grib2 2026-04-15 16:15 1.0M
20260415T12Z_MSC_GDPS_RelativeHumidity_IsbL-0600_LatLon0.15_PT078H.grib2 2026-04-15 16:15 1.0M
20260415T12Z_MSC_GDPS_RelativeHumidity_IsbL-0650_LatLon0.15_PT078H.grib2 2026-04-15 16:15 1.1M
20260415T12Z_MSC_GDPS_RelativeHumidity_IsbL-0700_LatLon0.15_PT078H.grib2 2026-04-15 16:15 1.1M
20260415T12Z_MSC_GDPS_RelativeHumidity_IsbL-0750_LatLon0.15_PT078H.grib2 2026-04-15 16:15 1.2M
20260415T12Z_MSC_GDPS_RelativeHumidity_IsbL-0800_LatLon0.15_PT078H.grib2 2026-04-15 16:15 1.2M
20260415T12Z_MSC_GDPS_RelativeHumidity_IsbL-0850_LatLon0.15_PT078H.grib2 2026-04-15 16:15 1.3M
20260415T12Z_MSC_GDPS_RelativeHumidity_IsbL-0875_LatLon0.15_PT078H.grib2 2026-04-15 16:15 1.3M
20260415T12Z_MSC_GDPS_RelativeHumidity_IsbL-0900_LatLon0.15_PT078H.grib2 2026-04-15 16:15 1.2M
20260415T12Z_MSC_GDPS_RelativeHumidity_IsbL-0925_LatLon0.15_PT078H.grib2 2026-04-15 16:15 1.2M
20260415T12Z_MSC_GDPS_RelativeHumidity_IsbL-0950_LatLon0.15_PT078H.grib2 2026-04-15 16:15 1.2M
20260415T12Z_MSC_GDPS_RelativeHumidity_IsbL-0970_LatLon0.15_PT078H.grib2 2026-04-15 16:15 1.2M
20260415T12Z_MSC_GDPS_RelativeHumidity_IsbL-0985_LatLon0.15_PT078H.grib2 2026-04-15 16:15 1.1M
20260415T12Z_MSC_GDPS_RelativeHumidity_IsbL-1000_LatLon0.15_PT078H.grib2 2026-04-15 16:15 1.1M
20260415T12Z_MSC_GDPS_RelativeHumidity_IsbL-1015_LatLon0.15_PT078H.grib2 2026-04-15 16:15 1.0M
20260415T12Z_MSC_GDPS_RelativeVorticity_IsbL-0200_LatLon0.15_PT078H.grib2 2026-04-15 16:15 1.5M
20260415T12Z_MSC_GDPS_RelativeVorticity_IsbL-0250_LatLon0.15_PT078H.grib2 2026-04-15 16:15 1.3M
20260415T12Z_MSC_GDPS_RelativeVorticity_IsbL-0500_LatLon0.15_PT078H.grib2 2026-04-15 16:15 1.5M
20260415T12Z_MSC_GDPS_RelativeVorticity_IsbL-0700_LatLon0.15_PT078H.grib2 2026-04-15 16:15 1.6M
20260415T12Z_MSC_GDPS_RelativeVorticity_IsbL-0850_LatLon0.15_PT078H.grib2 2026-04-15 16:15 1.6M
20260415T12Z_MSC_GDPS_Runoff-Accum_Sfc_LatLon0.15_PT078H.grib2 2026-04-15 16:15 129K
20260415T12Z_MSC_GDPS_SensibleHeatNetFlux_Sfc_LatLon0.15_PT078H.grib2 2026-04-15 16:15 448K
20260415T12Z_MSC_GDPS_ShowalterIndex_IsbL-0500_LatLon0.15_PT078H.grib2 2026-04-15 16:15 6.2M
20260415T12Z_MSC_GDPS_Snow-Accum12h_Sfc_LatLon0.15_PT078H.grib2 2026-04-15 16:15 1.3M
20260415T12Z_MSC_GDPS_Snow-Accum1h_Sfc_LatLon0.15_PT078H.grib2 2026-04-15 16:15 865K
20260415T12Z_MSC_GDPS_Snow-Accum24h_Sfc_LatLon0.15_PT078H.grib2 2026-04-15 16:15 1.5M
20260415T12Z_MSC_GDPS_Snow-Accum3h_Sfc_LatLon0.15_PT078H.grib2 2026-04-15 16:15 897K
20260415T12Z_MSC_GDPS_Snow-Accum6h_Sfc_LatLon0.15_PT078H.grib2 2026-04-15 16:15 1.2M
20260415T12Z_MSC_GDPS_Snow-Accum_Sfc_LatLon0.15_PT078H.grib2 2026-04-15 16:15 1.9M
20260415T12Z_MSC_GDPS_SnowDensity_Sfc_LatLon0.15_PT078H.grib2 2026-04-15 16:15 267K
20260415T12Z_MSC_GDPS_SnowDepth_Sfc_LatLon0.15_PT078H.grib2 2026-04-15 16:15 1.8M
20260415T12Z_MSC_GDPS_SoilTemp_DBS-0to10cm_LatLon0.15_PT078H.grib2 2026-04-15 16:15 506K
20260415T12Z_MSC_GDPS_SoilTemp_Sfc_LatLon0.15_PT078H.grib2 2026-04-15 16:15 581K
20260415T12Z_MSC_GDPS_SoilVolumetricIceContent_Sfc_LatLon0.15_PT078H.grib2 2026-04-15 16:15 223K
20260415T12Z_MSC_GDPS_SoilVolumetricWaterContent_DBS-0to10cm_LatLon0.15_PT078H.grib2 2026-04-15 16:15 553K
20260415T12Z_MSC_GDPS_SoilVolumetricWaterContent_DBS-0to1cm_LatLon0.15_PT078H.grib2 2026-04-15 16:15 652K
20260415T12Z_MSC_GDPS_SpecificHumidity_AGL-120m_LatLon0.15_PT078H.grib2 2026-04-15 16:15 1.1M
20260415T12Z_MSC_GDPS_SpecificHumidity_AGL-2m_LatLon0.15_PT078H.grib2 2026-04-15 16:15 1.2M
20260415T12Z_MSC_GDPS_SpecificHumidity_AGL-40m_LatLon0.15_PT078H.grib2 2026-04-15 16:15 1.1M
20260415T12Z_MSC_GDPS_SpecificHumidity_AGL-80m_LatLon0.15_PT078H.grib2 2026-04-15 16:15 1.1M
20260415T12Z_MSC_GDPS_SpecificHumidity_IsbL-0001_LatLon0.15_PT078H.grib2 2026-04-15 16:15 1.2M
20260415T12Z_MSC_GDPS_SpecificHumidity_IsbL-0005_LatLon0.15_PT078H.grib2 2026-04-15 16:15 1.1M
20260415T12Z_MSC_GDPS_SpecificHumidity_IsbL-0010_LatLon0.15_PT078H.grib2 2026-04-15 16:15 1.3M
20260415T12Z_MSC_GDPS_SpecificHumidity_IsbL-0020_LatLon0.15_PT078H.grib2 2026-04-15 16:15 1.3M
20260415T12Z_MSC_GDPS_SpecificHumidity_IsbL-0030_LatLon0.15_PT078H.grib2 2026-04-15 16:15 1.6M
20260415T12Z_MSC_GDPS_SpecificHumidity_IsbL-0050_LatLon0.15_PT078H.grib2 2026-04-15 16:15 1.3M
20260415T12Z_MSC_GDPS_SpecificHumidity_IsbL-0100_LatLon0.15_PT078H.grib2 2026-04-15 16:15 1.3M
20260415T12Z_MSC_GDPS_SpecificHumidity_IsbL-0150_LatLon0.15_PT078H.grib2 2026-04-15 16:15 1.3M
20260415T12Z_MSC_GDPS_SpecificHumidity_IsbL-0175_LatLon0.15_PT078H.grib2 2026-04-15 16:15 1.3M
20260415T12Z_MSC_GDPS_SpecificHumidity_IsbL-0200_LatLon0.15_PT078H.grib2 2026-04-15 16:15 1.3M
20260415T12Z_MSC_GDPS_SpecificHumidity_IsbL-0225_LatLon0.15_PT078H.grib2 2026-04-15 16:15 1.3M
20260415T12Z_MSC_GDPS_SpecificHumidity_IsbL-0250_LatLon0.15_PT078H.grib2 2026-04-15 16:15 1.5M
20260415T12Z_MSC_GDPS_SpecificHumidity_IsbL-0275_LatLon0.15_PT078H.grib2 2026-04-15 16:15 1.3M
20260415T12Z_MSC_GDPS_SpecificHumidity_IsbL-0300_LatLon0.15_PT078H.grib2 2026-04-15 16:15 1.2M
20260415T12Z_MSC_GDPS_SpecificHumidity_IsbL-0350_LatLon0.15_PT078H.grib2 2026-04-15 16:15 1.2M
20260415T12Z_MSC_GDPS_SpecificHumidity_IsbL-0400_LatLon0.15_PT078H.grib2 2026-04-15 16:15 1.5M
20260415T12Z_MSC_GDPS_SpecificHumidity_IsbL-0450_LatLon0.15_PT078H.grib2 2026-04-15 16:15 1.3M
20260415T12Z_MSC_GDPS_SpecificHumidity_IsbL-0500_LatLon0.15_PT078H.grib2 2026-04-15 16:15 1.4M
20260415T12Z_MSC_GDPS_SpecificHumidity_IsbL-0550_LatLon0.15_PT078H.grib2 2026-04-15 16:15 1.6M
20260415T12Z_MSC_GDPS_SpecificHumidity_IsbL-0600_LatLon0.15_PT078H.grib2 2026-04-15 16:15 1.7M
20260415T12Z_MSC_GDPS_SpecificHumidity_IsbL-0650_LatLon0.15_PT078H.grib2 2026-04-15 16:15 1.5M
20260415T12Z_MSC_GDPS_SpecificHumidity_IsbL-0700_LatLon0.15_PT078H.grib2 2026-04-15 16:15 1.6M
20260415T12Z_MSC_GDPS_SpecificHumidity_IsbL-0750_LatLon0.15_PT078H.grib2 2026-04-15 16:15 1.7M
20260415T12Z_MSC_GDPS_SpecificHumidity_IsbL-0800_LatLon0.15_PT078H.grib2 2026-04-15 16:15 1.8M
20260415T12Z_MSC_GDPS_SpecificHumidity_IsbL-0850_LatLon0.15_PT078H.grib2 2026-04-15 16:15 1.9M
20260415T12Z_MSC_GDPS_SpecificHumidity_IsbL-0875_LatLon0.15_PT078H.grib2 2026-04-15 16:15 1.9M
20260415T12Z_MSC_GDPS_SpecificHumidity_IsbL-0900_LatLon0.15_PT078H.grib2 2026-04-15 16:15 1.9M
20260415T12Z_MSC_GDPS_SpecificHumidity_IsbL-0925_LatLon0.15_PT078H.grib2 2026-04-15 16:15 1.6M
20260415T12Z_MSC_GDPS_SpecificHumidity_IsbL-0950_LatLon0.15_PT078H.grib2 2026-04-15 16:15 1.5M
20260415T12Z_MSC_GDPS_SpecificHumidity_IsbL-0970_LatLon0.15_PT078H.grib2 2026-04-15 16:15 1.5M
20260415T12Z_MSC_GDPS_SpecificHumidity_IsbL-0985_LatLon0.15_PT078H.grib2 2026-04-15 16:15 1.5M
20260415T12Z_MSC_GDPS_SpecificHumidity_IsbL-1000_LatLon0.15_PT078H.grib2 2026-04-15 16:15 1.5M
20260415T12Z_MSC_GDPS_SpecificHumidity_IsbL-1015_LatLon0.15_PT078H.grib2 2026-04-15 16:15 1.4M
20260415T12Z_MSC_GDPS_SpecificHumidity_Sfc_LatLon0.15_PT078H.grib2 2026-04-15 16:15 661K
20260415T12Z_MSC_GDPS_Thickness_IsbL-0850to0700_LatLon0.15_PT078H.grib2 2026-04-15 16:15 470K
20260415T12Z_MSC_GDPS_Thickness_IsbL-1000to0500_LatLon0.15_PT078H.grib2 2026-04-15 16:15 375K
20260415T12Z_MSC_GDPS_Thickness_IsbL-1000to0850_LatLon0.15_PT078H.grib2 2026-04-15 16:15 492K
20260415T12Z_MSC_GDPS_TotalCloudCover_Sfc_LatLon0.15_PT078H.grib2 2026-04-15 16:15 819K
20260415T12Z_MSC_GDPS_TotalTotalsIndex_Sfc_LatLon0.15_PT078H.grib2 2026-04-15 16:15 6.2M
20260415T12Z_MSC_GDPS_UVIndex-ClearSky-Max24h_Sfc_LatLon0.15_PT078H.grib2 2026-04-15 16:49 2.2M
20260415T12Z_MSC_GDPS_UVIndex-ClearSky_Sfc_LatLon0.15_PT078H.grib2 2026-04-15 16:49 1.0M
20260415T12Z_MSC_GDPS_UVIndex-Max24h_Sfc_LatLon0.15_PT078H.grib2 2026-04-15 16:49 3.2M
20260415T12Z_MSC_GDPS_UVIndex_Sfc_LatLon0.15_PT078H.grib2 2026-04-15 16:49 1.5M
20260415T12Z_MSC_GDPS_UpwardLongwaveRadiationFlux_NTAtm_LatLon0.15_PT078H.grib2 2026-04-15 16:15 837K
20260415T12Z_MSC_GDPS_VerticalVelocity_IsbL-0200_LatLon0.15_PT078H.grib2 2026-04-15 16:15 932K
20260415T12Z_MSC_GDPS_VerticalVelocity_IsbL-0250_LatLon0.15_PT078H.grib2 2026-04-15 16:15 1.0M
20260415T12Z_MSC_GDPS_VerticalVelocity_IsbL-0500_LatLon0.15_PT078H.grib2 2026-04-15 16:15 1.3M
20260415T12Z_MSC_GDPS_VerticalVelocity_IsbL-0600_LatLon0.15_PT078H.grib2 2026-04-15 16:15 1.3M
20260415T12Z_MSC_GDPS_VerticalVelocity_IsbL-0700_LatLon0.15_PT078H.grib2 2026-04-15 16:15 1.1M
20260415T12Z_MSC_GDPS_VerticalVelocity_IsbL-0850_LatLon0.15_PT078H.grib2 2026-04-15 16:15 1.3M
20260415T12Z_MSC_GDPS_WindChill_Sfc_LatLon0.15_PT078H.grib2 2026-04-15 16:15 5.3M
20260415T12Z_MSC_GDPS_WindDir_AGL-10m_LatLon0.15_PT078H.grib2 2026-04-15 16:15 1.4M
20260415T12Z_MSC_GDPS_WindDir_AGL-120m_LatLon0.15_PT078H.grib2 2026-04-15 16:15 1.4M
20260415T12Z_MSC_GDPS_WindDir_AGL-40m_LatLon0.15_PT078H.grib2 2026-04-15 16:15 1.4M
20260415T12Z_MSC_GDPS_WindDir_AGL-80m_LatLon0.15_PT078H.grib2 2026-04-15 16:15 1.4M
20260415T12Z_MSC_GDPS_WindDir_IsbL-0001_LatLon0.15_PT078H.grib2 2026-04-15 16:15 646K
20260415T12Z_MSC_GDPS_WindDir_IsbL-0005_LatLon0.15_PT078H.grib2 2026-04-15 16:15 792K
20260415T12Z_MSC_GDPS_WindDir_IsbL-0010_LatLon0.15_PT078H.grib2 2026-04-15 16:15 844K
20260415T12Z_MSC_GDPS_WindDir_IsbL-0020_LatLon0.15_PT078H.grib2 2026-04-15 16:15 921K
20260415T12Z_MSC_GDPS_WindDir_IsbL-0030_LatLon0.15_PT078H.grib2 2026-04-15 16:15 884K
20260415T12Z_MSC_GDPS_WindDir_IsbL-0050_LatLon0.15_PT078H.grib2 2026-04-15 16:15 948K
20260415T12Z_MSC_GDPS_WindDir_IsbL-0100_LatLon0.15_PT078H.grib2 2026-04-15 16:15 1.0M
20260415T12Z_MSC_GDPS_WindDir_IsbL-0150_LatLon0.15_PT078H.grib2 2026-04-15 16:15 1.0M
20260415T12Z_MSC_GDPS_WindDir_IsbL-0175_LatLon0.15_PT078H.grib2 2026-04-15 16:15 1.0M
20260415T12Z_MSC_GDPS_WindDir_IsbL-0200_LatLon0.15_PT078H.grib2 2026-04-15 16:15 1.1M
20260415T12Z_MSC_GDPS_WindDir_IsbL-0225_LatLon0.15_PT078H.grib2 2026-04-15 16:15 1.1M
20260415T12Z_MSC_GDPS_WindDir_IsbL-0250_LatLon0.15_PT078H.grib2 2026-04-15 16:15 1.1M
20260415T12Z_MSC_GDPS_WindDir_IsbL-0275_LatLon0.15_PT078H.grib2 2026-04-15 16:15 1.2M
20260415T12Z_MSC_GDPS_WindDir_IsbL-0300_LatLon0.15_PT078H.grib2 2026-04-15 16:15 1.2M
20260415T12Z_MSC_GDPS_WindDir_IsbL-0350_LatLon0.15_PT078H.grib2 2026-04-15 16:15 1.2M
20260415T12Z_MSC_GDPS_WindDir_IsbL-0400_LatLon0.15_PT078H.grib2 2026-04-15 16:15 1.3M
20260415T12Z_MSC_GDPS_WindDir_IsbL-0450_LatLon0.15_PT078H.grib2 2026-04-15 16:15 1.3M
20260415T12Z_MSC_GDPS_WindDir_IsbL-0500_LatLon0.15_PT078H.grib2 2026-04-15 16:15 1.4M
20260415T12Z_MSC_GDPS_WindDir_IsbL-0550_LatLon0.15_PT078H.grib2 2026-04-15 16:15 1.4M
20260415T12Z_MSC_GDPS_WindDir_IsbL-0600_LatLon0.15_PT078H.grib2 2026-04-15 16:15 1.5M
20260415T12Z_MSC_GDPS_WindDir_IsbL-0650_LatLon0.15_PT078H.grib2 2026-04-15 16:15 1.5M
20260415T12Z_MSC_GDPS_WindDir_IsbL-0700_LatLon0.15_PT078H.grib2 2026-04-15 16:15 1.6M
20260415T12Z_MSC_GDPS_WindDir_IsbL-0750_LatLon0.15_PT078H.grib2 2026-04-15 16:15 1.7M
20260415T12Z_MSC_GDPS_WindDir_IsbL-0800_LatLon0.15_PT078H.grib2 2026-04-15 16:15 1.8M
20260415T12Z_MSC_GDPS_WindDir_IsbL-0850_LatLon0.15_PT078H.grib2 2026-04-15 16:15 2.0M
20260415T12Z_MSC_GDPS_WindDir_IsbL-0875_LatLon0.15_PT078H.grib2 2026-04-15 16:15 2.0M
20260415T12Z_MSC_GDPS_WindDir_IsbL-0900_LatLon0.15_PT078H.grib2 2026-04-15 16:15 2.0M
20260415T12Z_MSC_GDPS_WindDir_IsbL-0925_LatLon0.15_PT078H.grib2 2026-04-15 16:15 2.0M
20260415T12Z_MSC_GDPS_WindDir_IsbL-0950_LatLon0.15_PT078H.grib2 2026-04-15 16:15 2.0M
20260415T12Z_MSC_GDPS_WindDir_IsbL-0970_LatLon0.15_PT078H.grib2 2026-04-15 16:15 2.0M
20260415T12Z_MSC_GDPS_WindDir_IsbL-0985_LatLon0.15_PT078H.grib2 2026-04-15 16:15 2.1M
20260415T12Z_MSC_GDPS_WindDir_IsbL-1000_LatLon0.15_PT078H.grib2 2026-04-15 16:15 2.1M
20260415T12Z_MSC_GDPS_WindDir_IsbL-1015_LatLon0.15_PT078H.grib2 2026-04-15 16:15 2.1M
20260415T12Z_MSC_GDPS_WindGust-Max_AGL-10m_LatLon0.15_PT078H.grib2 2026-04-15 16:15 2.2M
20260415T12Z_MSC_GDPS_WindGust-Min_AGL-10m_LatLon0.15_PT078H.grib2 2026-04-15 16:15 2.2M
20260415T12Z_MSC_GDPS_WindGust_AGL-10m_LatLon0.15_PT078H.grib2 2026-04-15 16:15 2.1M
20260415T12Z_MSC_GDPS_WindSpeed_AGL-10m_LatLon0.15_PT078H.grib2 2026-04-15 16:15 1.1M
20260415T12Z_MSC_GDPS_WindSpeed_AGL-120m_LatLon0.15_PT078H.grib2 2026-04-15 16:15 1.2M
20260415T12Z_MSC_GDPS_WindSpeed_AGL-40m_LatLon0.15_PT078H.grib2 2026-04-15 16:15 1.2M
20260415T12Z_MSC_GDPS_WindSpeed_AGL-80m_LatLon0.15_PT078H.grib2 2026-04-15 16:15 1.2M
20260415T12Z_MSC_GDPS_WindSpeed_IsbL-0001_LatLon0.15_PT078H.grib2 2026-04-15 16:15 637K
20260415T12Z_MSC_GDPS_WindSpeed_IsbL-0005_LatLon0.15_PT078H.grib2 2026-04-15 16:15 687K
20260415T12Z_MSC_GDPS_WindSpeed_IsbL-0010_LatLon0.15_PT078H.grib2 2026-04-15 16:15 623K
20260415T12Z_MSC_GDPS_WindSpeed_IsbL-0020_LatLon0.15_PT078H.grib2 2026-04-15 16:15 668K
20260415T12Z_MSC_GDPS_WindSpeed_IsbL-0030_LatLon0.15_PT078H.grib2 2026-04-15 16:15 855K
20260415T12Z_MSC_GDPS_WindSpeed_IsbL-0050_LatLon0.15_PT078H.grib2 2026-04-15 16:15 913K
20260415T12Z_MSC_GDPS_WindSpeed_IsbL-0100_LatLon0.15_PT078H.grib2 2026-04-15 16:15 1.1M
20260415T12Z_MSC_GDPS_WindSpeed_IsbL-0150_LatLon0.15_PT078H.grib2 2026-04-15 16:15 938K
20260415T12Z_MSC_GDPS_WindSpeed_IsbL-0175_LatLon0.15_PT078H.grib2 2026-04-15 16:15 1.0M
20260415T12Z_MSC_GDPS_WindSpeed_IsbL-0200_LatLon0.15_PT078H.grib2 2026-04-15 16:15 1.1M
20260415T12Z_MSC_GDPS_WindSpeed_IsbL-0225_LatLon0.15_PT078H.grib2 2026-04-15 16:15 1.1M
20260415T12Z_MSC_GDPS_WindSpeed_IsbL-0250_LatLon0.15_PT078H.grib2 2026-04-15 16:15 1.1M
20260415T12Z_MSC_GDPS_WindSpeed_IsbL-0275_LatLon0.15_PT078H.grib2 2026-04-15 16:15 1.1M
20260415T12Z_MSC_GDPS_WindSpeed_IsbL-0300_LatLon0.15_PT078H.grib2 2026-04-15 16:15 1.1M
20260415T12Z_MSC_GDPS_WindSpeed_IsbL-0350_LatLon0.15_PT078H.grib2 2026-04-15 16:15 1.1M
20260415T12Z_MSC_GDPS_WindSpeed_IsbL-0400_LatLon0.15_PT078H.grib2 2026-04-15 16:15 1.1M
20260415T12Z_MSC_GDPS_WindSpeed_IsbL-0450_LatLon0.15_PT078H.grib2 2026-04-15 16:15 1.1M
20260415T12Z_MSC_GDPS_WindSpeed_IsbL-0500_LatLon0.15_PT078H.grib2 2026-04-15 16:15 1.1M
20260415T12Z_MSC_GDPS_WindSpeed_IsbL-0550_LatLon0.15_PT078H.grib2 2026-04-15 16:15 1.1M
20260415T12Z_MSC_GDPS_WindSpeed_IsbL-0600_LatLon0.15_PT078H.grib2 2026-04-15 16:15 1.4M
20260415T12Z_MSC_GDPS_WindSpeed_IsbL-0650_LatLon0.15_PT078H.grib2 2026-04-15 16:15 1.4M
20260415T12Z_MSC_GDPS_WindSpeed_IsbL-0700_LatLon0.15_PT078H.grib2 2026-04-15 16:15 1.5M
20260415T12Z_MSC_GDPS_WindSpeed_IsbL-0750_LatLon0.15_PT078H.grib2 2026-04-15 16:15 1.5M
20260415T12Z_MSC_GDPS_WindSpeed_IsbL-0800_LatLon0.15_PT078H.grib2 2026-04-15 16:15 1.6M
20260415T12Z_MSC_GDPS_WindSpeed_IsbL-0850_LatLon0.15_PT078H.grib2 2026-04-15 16:15 1.7M
20260415T12Z_MSC_GDPS_WindSpeed_IsbL-0875_LatLon0.15_PT078H.grib2 2026-04-15 16:15 1.8M
20260415T12Z_MSC_GDPS_WindSpeed_IsbL-0900_LatLon0.15_PT078H.grib2 2026-04-15 16:15 1.8M
20260415T12Z_MSC_GDPS_WindSpeed_IsbL-0925_LatLon0.15_PT078H.grib2 2026-04-15 16:15 1.8M
20260415T12Z_MSC_GDPS_WindSpeed_IsbL-0950_LatLon0.15_PT078H.grib2 2026-04-15 16:15 1.8M
20260415T12Z_MSC_GDPS_WindSpeed_IsbL-0970_LatLon0.15_PT078H.grib2 2026-04-15 16:15 1.9M
20260415T12Z_MSC_GDPS_WindSpeed_IsbL-0985_LatLon0.15_PT078H.grib2 2026-04-15 16:15 1.9M
20260415T12Z_MSC_GDPS_WindSpeed_IsbL-1000_LatLon0.15_PT078H.grib2 2026-04-15 16:15 1.9M
20260415T12Z_MSC_GDPS_WindSpeed_IsbL-1015_LatLon0.15_PT078H.grib2 2026-04-15 16:15 1.8M
20260415T12Z_MSC_GDPS_WindU_AGL-10m_LatLon0.15_PT078H.grib2 2026-04-15 16:15 1.3M
20260415T12Z_MSC_GDPS_WindU_AGL-120m_LatLon0.15_PT078H.grib2 2026-04-15 16:15 1.0M
20260415T12Z_MSC_GDPS_WindU_AGL-40m_LatLon0.15_PT078H.grib2 2026-04-15 16:15 969K
20260415T12Z_MSC_GDPS_WindU_AGL-80m_LatLon0.15_PT078H.grib2 2026-04-15 16:15 1.0M
20260415T12Z_MSC_GDPS_WindU_IsbL-0001_LatLon0.15_PT078H.grib2 2026-04-15 16:15 640K
20260415T12Z_MSC_GDPS_WindU_IsbL-0005_LatLon0.15_PT078H.grib2 2026-04-15 16:15 689K
20260415T12Z_MSC_GDPS_WindU_IsbL-0010_LatLon0.15_PT078H.grib2 2026-04-15 16:15 699K
20260415T12Z_MSC_GDPS_WindU_IsbL-0020_LatLon0.15_PT078H.grib2 2026-04-15 16:15 736K
20260415T12Z_MSC_GDPS_WindU_IsbL-0030_LatLon0.15_PT078H.grib2 2026-04-15 16:15 736K
20260415T12Z_MSC_GDPS_WindU_IsbL-0050_LatLon0.15_PT078H.grib2 2026-04-15 16:15 703K
20260415T12Z_MSC_GDPS_WindU_IsbL-0100_LatLon0.15_PT078H.grib2 2026-04-15 16:15 926K
20260415T12Z_MSC_GDPS_WindU_IsbL-0150_LatLon0.15_PT078H.grib2 2026-04-15 16:15 1.0M
20260415T12Z_MSC_GDPS_WindU_IsbL-0175_LatLon0.15_PT078H.grib2 2026-04-15 16:15 1.0M
20260415T12Z_MSC_GDPS_WindU_IsbL-0200_LatLon0.15_PT078H.grib2 2026-04-15 16:15 1.1M
20260415T12Z_MSC_GDPS_WindU_IsbL-0225_LatLon0.15_PT078H.grib2 2026-04-15 16:15 1.1M
20260415T12Z_MSC_GDPS_WindU_IsbL-0250_LatLon0.15_PT078H.grib2 2026-04-15 16:15 1.1M
20260415T12Z_MSC_GDPS_WindU_IsbL-0275_LatLon0.15_PT078H.grib2 2026-04-15 16:15 881K
20260415T12Z_MSC_GDPS_WindU_IsbL-0300_LatLon0.15_PT078H.grib2 2026-04-15 16:15 873K
20260415T12Z_MSC_GDPS_WindU_IsbL-0350_LatLon0.15_PT078H.grib2 2026-04-15 16:15 1.1M
20260415T12Z_MSC_GDPS_WindU_IsbL-0400_LatLon0.15_PT078H.grib2 2026-04-15 16:15 1.1M
20260415T12Z_MSC_GDPS_WindU_IsbL-0450_LatLon0.15_PT078H.grib2 2026-04-15 16:15 1.1M
20260415T12Z_MSC_GDPS_WindU_IsbL-0500_LatLon0.15_PT078H.grib2 2026-04-15 16:15 1.1M
20260415T12Z_MSC_GDPS_WindU_IsbL-0550_LatLon0.15_PT078H.grib2 2026-04-15 16:15 1.1M
20260415T12Z_MSC_GDPS_WindU_IsbL-0600_LatLon0.15_PT078H.grib2 2026-04-15 16:15 1.1M
20260415T12Z_MSC_GDPS_WindU_IsbL-0650_LatLon0.15_PT078H.grib2 2026-04-15 16:15 1.2M
20260415T12Z_MSC_GDPS_WindU_IsbL-0700_LatLon0.15_PT078H.grib2 2026-04-15 16:15 1.2M
20260415T12Z_MSC_GDPS_WindU_IsbL-0750_LatLon0.15_PT078H.grib2 2026-04-15 16:15 1.3M
20260415T12Z_MSC_GDPS_WindU_IsbL-0800_LatLon0.15_PT078H.grib2 2026-04-15 16:15 1.3M
20260415T12Z_MSC_GDPS_WindU_IsbL-0850_LatLon0.15_PT078H.grib2 2026-04-15 16:15 1.4M
20260415T12Z_MSC_GDPS_WindU_IsbL-0875_LatLon0.15_PT078H.grib2 2026-04-15 16:15 1.4M
20260415T12Z_MSC_GDPS_WindU_IsbL-0900_LatLon0.15_PT078H.grib2 2026-04-15 16:15 1.5M
20260415T12Z_MSC_GDPS_WindU_IsbL-0925_LatLon0.15_PT078H.grib2 2026-04-15 16:15 1.5M
20260415T12Z_MSC_GDPS_WindU_IsbL-0950_LatLon0.15_PT078H.grib2 2026-04-15 16:15 1.4M
20260415T12Z_MSC_GDPS_WindU_IsbL-0970_LatLon0.15_PT078H.grib2 2026-04-15 16:15 1.4M
20260415T12Z_MSC_GDPS_WindU_IsbL-0985_LatLon0.15_PT078H.grib2 2026-04-15 16:15 1.4M
20260415T12Z_MSC_GDPS_WindU_IsbL-1000_LatLon0.15_PT078H.grib2 2026-04-15 16:15 1.4M
20260415T12Z_MSC_GDPS_WindU_IsbL-1015_LatLon0.15_PT078H.grib2 2026-04-15 16:15 1.3M
20260415T12Z_MSC_GDPS_WindV_AGL-10m_LatLon0.15_PT078H.grib2 2026-04-15 16:15 1.3M
20260415T12Z_MSC_GDPS_WindV_AGL-120m_LatLon0.15_PT078H.grib2 2026-04-15 16:15 1.0M
20260415T12Z_MSC_GDPS_WindV_AGL-40m_LatLon0.15_PT078H.grib2 2026-04-15 16:15 1.0M
20260415T12Z_MSC_GDPS_WindV_AGL-80m_LatLon0.15_PT078H.grib2 2026-04-15 16:15 1.0M
20260415T12Z_MSC_GDPS_WindV_IsbL-0001_LatLon0.15_PT078H.grib2 2026-04-15 16:15 698K
20260415T12Z_MSC_GDPS_WindV_IsbL-0005_LatLon0.15_PT078H.grib2 2026-04-15 16:15 608K
20260415T12Z_MSC_GDPS_WindV_IsbL-0010_LatLon0.15_PT078H.grib2 2026-04-15 16:15 802K
20260415T12Z_MSC_GDPS_WindV_IsbL-0020_LatLon0.15_PT078H.grib2 2026-04-15 16:15 854K
20260415T12Z_MSC_GDPS_WindV_IsbL-0030_LatLon0.15_PT078H.grib2 2026-04-15 16:15 851K
20260415T12Z_MSC_GDPS_WindV_IsbL-0050_LatLon0.15_PT078H.grib2 2026-04-15 16:15 702K
20260415T12Z_MSC_GDPS_WindV_IsbL-0100_LatLon0.15_PT078H.grib2 2026-04-15 16:15 850K
20260415T12Z_MSC_GDPS_WindV_IsbL-0150_LatLon0.15_PT078H.grib2 2026-04-15 16:15 1.0M
20260415T12Z_MSC_GDPS_WindV_IsbL-0175_LatLon0.15_PT078H.grib2 2026-04-15 16:15 1.0M
20260415T12Z_MSC_GDPS_WindV_IsbL-0200_LatLon0.15_PT078H.grib2 2026-04-15 16:15 842K
20260415T12Z_MSC_GDPS_WindV_IsbL-0225_LatLon0.15_PT078H.grib2 2026-04-15 16:15 851K
20260415T12Z_MSC_GDPS_WindV_IsbL-0250_LatLon0.15_PT078H.grib2 2026-04-15 16:15 908K
20260415T12Z_MSC_GDPS_WindV_IsbL-0275_LatLon0.15_PT078H.grib2 2026-04-15 16:15 933K
20260415T12Z_MSC_GDPS_WindV_IsbL-0300_LatLon0.15_PT078H.grib2 2026-04-15 16:15 924K
20260415T12Z_MSC_GDPS_WindV_IsbL-0350_LatLon0.15_PT078H.grib2 2026-04-15 16:15 935K
20260415T12Z_MSC_GDPS_WindV_IsbL-0400_LatLon0.15_PT078H.grib2 2026-04-15 16:15 876K
20260415T12Z_MSC_GDPS_WindV_IsbL-0450_LatLon0.15_PT078H.grib2 2026-04-15 16:15 876K
20260415T12Z_MSC_GDPS_WindV_IsbL-0500_LatLon0.15_PT078H.grib2 2026-04-15 16:15 1.1M
20260415T12Z_MSC_GDPS_WindV_IsbL-0550_LatLon0.15_PT078H.grib2 2026-04-15 16:15 1.1M
20260415T12Z_MSC_GDPS_WindV_IsbL-0600_LatLon0.15_PT078H.grib2 2026-04-15 16:15 1.1M
20260415T12Z_MSC_GDPS_WindV_IsbL-0650_LatLon0.15_PT078H.grib2 2026-04-15 16:15 1.2M
20260415T12Z_MSC_GDPS_WindV_IsbL-0700_LatLon0.15_PT078H.grib2 2026-04-15 16:15 1.2M
20260415T12Z_MSC_GDPS_WindV_IsbL-0750_LatLon0.15_PT078H.grib2 2026-04-15 16:15 1.3M
20260415T12Z_MSC_GDPS_WindV_IsbL-0800_LatLon0.15_PT078H.grib2 2026-04-15 16:15 1.3M
20260415T12Z_MSC_GDPS_WindV_IsbL-0850_LatLon0.15_PT078H.grib2 2026-04-15 16:15 1.4M
20260415T12Z_MSC_GDPS_WindV_IsbL-0875_LatLon0.15_PT078H.grib2 2026-04-15 16:15 1.4M
20260415T12Z_MSC_GDPS_WindV_IsbL-0900_LatLon0.15_PT078H.grib2 2026-04-15 16:15 1.4M
20260415T12Z_MSC_GDPS_WindV_IsbL-0925_LatLon0.15_PT078H.grib2 2026-04-15 16:15 1.4M
20260415T12Z_MSC_GDPS_WindV_IsbL-0950_LatLon0.15_PT078H.grib2 2026-04-15 16:15 1.4M
20260415T12Z_MSC_GDPS_WindV_IsbL-0970_LatLon0.15_PT078H.grib2 2026-04-15 16:15 1.4M
20260415T12Z_MSC_GDPS_WindV_IsbL-0985_LatLon0.15_PT078H.grib2 2026-04-15 16:15 1.4M
20260415T12Z_MSC_GDPS_WindV_IsbL-1000_LatLon0.15_PT078H.grib2 2026-04-15 16:15 1.4M
20260415T12Z_MSC_GDPS_WindV_IsbL-1015_LatLon0.15_PT078H.grib2 2026-04-15 16:15 1.3M